GFSFLT2_925_thetae_030.txt.gz
Theta_e
288 287 288 287 287 287 288 287 287 287 287 287 287 288 289 289 290 291 291 291 292 292 293 293 294 294 295
288 290 288 286 286 286 287 287 287 287 287 287 287 287 288 288 289 289 290 290 291 291 292 292 292 292 293
288 287 286 286 286 286 287 287 287 286 286 285 286 287 287 288 288 289 289 289 290 290 290 290 291 291 292
287 287 287 287 287 287 287 287 287 286 285 286 286 286 286 287 287 287 287 287 288 288 288 289 289 290 290
288 288 288 288 287 287 287 286 286 286 286 286 286 286 286 286 286 286 286 286 287 287 288 289 289 290 290
288 288 287 287 287 286 286 285 286 285 285 285 286 286 286 286 286 286 286 287 287 287 288 288 289 289 290
287 287 287 286 286 285 285 285 285 284 285 285 285 285 285 285 286 286 286 286 286 287 287 288 288 289 289
286 286 286 285 285 285 285 284 284 284 284 285 285 285 285 285 285 285 285 286 286 286 287 287 288 288 288
284 284 284 284 284 283 283 284 284 284 284 284 284 285 285 284 284 285 285 285 285 286 286 286 286 287 287
283 283 282 281 281 282 282 283 283 282 284 283 283 283 283 284 284 284 284 284 284 284 285 285 285 285 285
282 281 281 282 282 282 282 281 281 281 282 282 282 282 283 283 283 284 284 284 284 284 284 284 284 284 284
280 281 282 283 282 282 281 281 280 280 281 280 280 281 281 281 282 283 284 283 283 283 283 284 284 284 285
281 282 282 281 280 280 280 281 280 280 280 281 279 279 279 280 281 281 282 283 282 282 283 283 284 283 283
281 281 280 280 281 281 281 281 281 281 282 282 282 280 280 280 280 281 281 282 282 282 283 283 283 283 283
280 280 280 280 280 280 280 280 280 281 283 283 283 282 281 281 281 281 282 282 282 283 283 283 284 284 284
279 279 279 279 279 279 280 281 281 282 282 282 282 282 282 283 283 283 283 284 284 284 285 285 285 285 285
278 278 278 278 278 279 280 280 281 282 282 282 282 284 285 285 284 284 284 284 284 285 285 285 286 286 286

GFSFLT2_925_thetae_036.txt.gz
Theta_e
292 292 292 293 292 290 291 293 293 291 290 290 291 291 291 291 291 291 291 292 292 293 294 294 295 295 296
292 292 291 291 291 292 292 289 288 287 288 290 290 290 290 290 290 290 290 291 291 292 292 293 293 294 295
292 291 291 291 290 289 288 288 288 288 289 288 288 288 288 289 290 290 290 290 290 291 291 291 291 292 292
291 290 290 289 288 288 288 288 288 287 287 287 287 287 287 288 288 288 288 289 289 289 290 290 290 290 291
289 289 288 288 288 288 288 287 287 287 286 285 285 285 285 285 286 286 287 288 289 289 289 290 290 290 290
289 289 289 288 287 287 286 286 285 285 285 284 284 284 285 285 285 287 288 288 289 289 289 289 290 290 290
288 288 287 287 286 286 286 285 285 285 285 284 284 284 285 285 285 286 287 288 288 289 289 289 289 289 289
286 286 286 286 285 285 285 284 284 284 283 284 284 284 284 285 285 286 286 287 288 288 288 289 289 289 289
285 285 285 285 285 285 284 284 283 283 283 283 283 284 284 284 285 285 286 286 286 286 287 288 288 288 288
283 283 283 282 283 283 282 282 282 282 283 283 283 282 283 283 283 284 284 283 284 284 285 286 286 287 286
282 282 281 282 282 283 283 282 282 282 282 282 282 281 281 282 282 282 282 282 281 282 282 283 284 285 285
280 281 282 283 283 283 283 283 282 282 282 281 281 281 281 281 281 281 281 281 281 281 281 282 283 283 284
281 282 282 282 281 281 281 281 281 281 281 281 281 281 281 281 281 281 282 282 282 282 282 281 282 282 282
281 281 281 281 281 281 281 281 281 281 281 281 281 281 281 281 282 282 283 283 282 282 282 282 282 282 283
281 280 280 280 280 280 279 279 280 280 280 281 281 282 282 282 283 283 283 282 282 283 283 283 283 284 284
280 279 279 279 279 279 279 279 279 280 280 281 281 281 282 283 283 283 283 283 283 284 284 284 284 284 284
279 279 279 279 279 279 279 279 279 279 280 280 280 281 281 282 283 283 284 284 284 284 284 284 284 284 284

GFSFLT2_925_thetae_039.txt.gz
Theta_e
295 295 295 295 295 293 293 293 292 291 291 292 292 292 292 292 292 292 292 292 292 293 294 294 295 296 296
293 293 292 292 293 293 292 291 291 291 289 290 291 291 291 291 290 290 291 291 292 292 292 293 293 294 294
291 292 292 292 291 291 291 291 289 288 289 290 290 289 289 289 289 290 290 290 290 290 291 291 291 292 292
292 291 290 291 290 289 288 288 288 288 287 287 287 287 287 287 288 288 288 288 288 289 290 290 290 291 291
290 289 289 288 288 288 288 287 287 287 286 285 284 284 284 285 285 285 286 288 289 289 290 290 291 291 291
289 289 288 288 287 287 287 286 284 285 284 284 284 284 285 285 285 286 287 288 288 289 290 290 290 290 290
288 288 287 286 286 286 285 285 284 285 284 284 283 284 285 285 285 286 287 288 288 289 289 289 290 290 290
286 286 286 286 285 285 285 284 284 283 283 283 283 284 285 285 285 285 286 287 288 288 288 288 289 289 289
285 285 285 285 285 285 284 284 282 282 282 282 283 283 283 285 285 285 285 285 285 285 286 286 287 287 287
283 283 283 282 282 283 282 282 281 281 283 283 282 282 282 283 283 283 283 283 283 283 283 284 284 285 285
281 281 281 281 282 282 282 282 282 282 282 282 282 281 281 281 281 281 282 282 282 282 283 282 283 284 284
280 280 282 282 282 282 282 282 281 282 281 281 281 281 280 280 281 281 281 282 282 283 283 283 283 283 283
280 280 281 281 281 281 281 281 281 281 281 281 281 281 280 280 281 281 281 282 282 283 283 283 283 283 283
280 281 281 280 280 280 280 280 279 280 280 280 280 280 280 280 280 281 281 282 283 283 283 283 282 282 283
280 280 280 279 280 279 279 279 279 279 279 279 280 281 281 281 281 281 282 282 282 282 282 282 283 283 283
279 279 279 279 279 279 280 279 279 278 278 279 279 280 281 281 281 282 282 283 283 283 283 283 283 284 284
279 279 279 278 279 279 279 279 278 278 278 278 279 279 280 280 281 282 282 282 282 282 283 283 283 283 284

GFSFLT2_925_thetae_042.txt.gz
Theta_e
297 296 295 295 295 295 295 294 294 295 294 294 293 294 294 294 293 293 294 294 293 293 294 295 295 296 296
294 293 293 293 294 294 294 292 292 293 292 292 291 292 292 293 292 292 291 292 292 292 293 293 294 294 295
292 292 291 292 291 291 291 291 291 291 290 290 291 292 291 290 290 290 290 291 291 291 291 291 292 292 293
292 291 291 290 290 290 290 290 288 288 288 288 288 288 288 288 288 288 288 288 289 289 289 290 290 291 291
290 290 289 289 289 288 288 288 287 287 287 287 286 284 284 284 284 285 286 287 288 289 290 291 291 291 291
289 289 288 288 287 287 286 286 285 285 285 284 284 283 284 284 285 285 287 288 288 289 290 290 290 291 291
288 288 287 286 286 286 285 285 284 285 284 284 283 283 284 285 285 285 287 287 288 289 289 290 290 290 290
286 286 286 285 285 285 285 285 284 283 283 282 283 284 284 285 285 285 286 287 288 288 288 288 288 288 289
285 285 285 285 286 285 285 284 283 282 282 282 282 283 283 284 284 284 286 286 285 285 286 286 286 286 287
284 283 282 282 282 283 283 282 281 281 282 282 282 282 281 282 283 284 284 284 284 284 284 285 285 285 284
281 280 280 281 282 282 282 282 282 282 282 282 282 281 281 281 281 282 282 283 282 283 283 283 284 284 284
280 280 281 281 281 281 281 281 281 281 281 281 281 281 281 281 281 281 281 281 282 283 283 283 284 284 284
280 280 281 281 281 281 281 280 280 280 280 280 281 281 281 280 281 281 281 281 281 282 283 283 283 283 283
280 280 280 280 280 279 279 279 279 280 280 280 280 280 280 280 280 280 280 280 281 281 282 282 282 282 282
280 280 279 279 279 279 279 279 279 279 279 279 279 279 279 280 280 280 280 281 281 281 282 282 282 282 282
279 279 279 278 278 279 279 279 279 278 278 279 278 278 279 279 280 280 281 281 281 282 282 281 282 282 283
279 279 279 278 278 278 278 277 278 278 278 278 278 277 277 278 279 281 282 281 281 281 281 281 281 282 282

GFSFLT2_925_thetae_045.txt.gz
Theta_e
299 298 296 295 297 297 297 297 297 296 297 296 296 296 295 295 295 295 296 296 296 296 295 295 296 296 297
295 294 294 293 292 294 294 294 294 293 293 293 293 293 293 294 294 294 294 293 293 293 293 294 294 295 295
293 292 292 292 291 292 292 292 292 291 291 292 292 292 293 293 292 291 291 291 291 292 292 292 292 292 293
292 291 291 290 290 290 290 290 290 290 288 289 289 289 290 289 289 289 289 289 289 290 290 290 290 291 292
291 290 290 289 289 289 289 288 287 287 287 287 287 287 286 285 284 284 286 287 288 288 289 290 291 291 292
289 288 287 287 287 287 286 286 285 285 285 285 284 284 283 284 284 284 285 287 288 289 290 290 290 291 291
288 287 286 286 286 285 285 285 284 285 284 283 283 283 284 284 285 285 286 287 288 289 289 290 290 290 290
285 285 285 285 285 285 285 284 284 283 283 282 282 283 284 285 285 285 285 287 288 288 289 288 288 288 289
285 285 285 285 285 285 284 284 283 282 282 282 282 282 283 284 283 284 286 287 286 286 286 287 287 287 287
283 282 282 282 282 282 282 282 281 280 282 282 282 282 281 282 283 283 284 284 284 284 285 285 285 285 285
280 280 280 280 281 282 282 282 282 282 282 282 282 281 281 281 281 283 284 284 284 284 284 284 284 284 284
279 280 280 281 281 281 281 281 281 280 281 281 280 281 281 281 281 281 281 281 282 283 283 283 283 284 284
280 280 280 280 280 280 280 280 280 280 280 280 280 280 280 281 281 280 281 281 281 281 282 283 283 283 283
280 280 280 279 279 279 279 279 279 280 280 280 280 279 279 280 280 280 280 280 281 281 281 281 282 283 283
280 279 279 279 279 278 278 279 279 278 279 280 280 279 278 278 278 279 279 280 280 280 280 280 282 282 282
279 279 279 279 278 278 279 278 278 278 278 279 279 278 277 279 279 279 280 280 280 281 281 280 281 282 281
278 278 278 278 278 278 277 277 276 277 277 278 278 277 276 277 278 280 281 280 280 280 280 280 280 281 281

GFSFLT2_925_thetae_051.txt.gz
Theta_e
299 298 297 297 296 296 297 298 299 300 301 301 301 300 299 299 299 298 298 299 298 299 299 300 300 299 299
296 296 295 295 295 295 295 296 296 299 298 298 298 298 297 297 297 296 297 297 296 297 297 296 297 296 297
294 294 293 292 293 293 293 293 294 295 296 295 295 295 295 295 295 295 295 295 295 294 293 294 293 294 294
293 292 291 291 291 290 291 291 291 291 291 291 290 291 292 293 292 292 292 291 291 291 291 291 291 291 292
292 291 291 290 289 288 288 287 287 287 287 287 287 287 288 288 288 288 288 288 287 288 288 289 290 291 291
288 288 287 286 285 286 286 286 287 285 284 285 285 284 284 284 284 284 284 284 285 287 288 289 290 291 291
286 286 286 285 285 285 284 284 285 284 283 284 282 283 284 284 284 284 285 287 288 288 289 290 290 290 291
285 285 285 285 285 285 284 284 283 283 282 283 282 283 284 284 284 284 285 285 287 288 289 290 290 290 290
284 284 284 284 284 284 284 283 283 282 281 282 282 283 283 283 283 284 285 286 287 288 288 289 289 289 289
281 280 280 280 280 281 281 282 281 282 281 282 282 282 284 283 283 284 284 284 284 285 286 286 287 287 287
279 279 280 281 281 281 281 281 281 281 282 281 281 281 282 282 283 282 282 283 283 283 283 284 284 284 285
280 280 280 280 281 281 281 280 280 280 281 280 280 280 281 281 281 282 282 282 282 282 283 283 283 283 284
280 280 280 280 280 280 280 279 279 280 280 280 280 280 279 279 280 280 281 282 281 281 282 282 282 282 282
280 280 280 280 280 280 279 279 278 280 280 279 279 279 279 279 279 279 280 280 281 281 281 280 280 281 281
280 279 280 280 280 279 278 278 278 279 279 279 278 278 278 278 278 278 279 280 280 280 280 280 281 281 282
278 278 278 278 278 277 277 277 278 278 278 277 277 277 278 280 281 281 280 280 280 280 280 280 281 282 282
277 277 277 277 276 276 276 276 276 277 277 277 276 276 278 280 280 280 280 280 280 281 281 281 281 281 281

GFSFLT2_925_thetae_054.txt.gz
Theta_e
300 299 298 297 296 296 296 299 299 299 298 299 300 301 301 301 300 300 300 300 300 300 301 301 301 301 301
297 296 296 294 294 294 294 295 296 297 297 298 298 298 298 298 298 298 298 298 298 298 298 298 299 299 299
297 295 293 293 293 293 293 293 294 294 295 296 296 296 295 296 296 296 296 296 296 296 296 296 296 296 296
295 295 293 292 291 292 295 293 293 291 291 291 291 291 292 293 294 294 294 295 294 293 293 293 293 293 293
295 295 294 293 292 290 291 290 290 288 288 288 288 288 288 288 289 289 290 291 291 291 290 290 290 291 291
293 293 291 289 288 288 288 288 290 287 286 287 286 286 286 286 285 284 284 285 285 287 287 288 290 291 291
289 288 288 287 286 287 287 287 287 286 285 286 285 285 286 285 285 285 285 287 288 288 289 289 290 291 291
287 287 286 286 286 286 286 285 285 285 284 285 286 286 286 286 285 285 285 286 287 288 289 290 290 290 291
284 284 284 284 284 285 286 285 286 285 283 284 286 285 286 286 285 284 285 285 285 286 288 289 289 290 290
282 281 280 281 280 282 283 284 284 286 284 284 285 284 287 286 285 285 285 285 284 284 286 287 288 288 288
281 281 281 282 282 282 282 282 284 284 284 283 283 284 284 285 285 285 285 285 285 285 284 285 286 287 287
281 282 282 283 282 282 281 281 281 281 282 281 281 282 283 283 284 285 285 284 284 284 284 284 284 284 285
282 283 282 282 281 281 280 280 280 281 280 280 280 281 281 281 282 283 282 284 283 283 284 284 284 284 284
282 282 281 281 282 282 281 282 281 282 281 280 280 279 280 281 281 281 281 282 284 284 283 283 283 283 283
281 281 281 281 282 281 281 281 281 281 282 281 280 279 280 279 280 281 282 282 283 283 282 282 282 283 283
280 280 280 280 280 280 280 280 280 281 281 281 280 280 281 281 281 281 282 283 283 283 282 282 282 283 284
279 279 279 279 278 279 279 279 279 280 280 280 280 280 281 283 283 282 281 282 283 283 283 283 283 283 284

GFSFLT2_925_thetae_060.txt.gz
Theta_e
302 301 299 298 297 297 297 296 296 297 298 299 300 300 300 301 302 303 304 304 304 304 303 303 303 303 304
300 298 297 296 295 296 296 295 295 294 295 296 296 297 297 298 299 299 299 300 300 300 300 300 302 302 302
298 297 296 294 295 294 295 294 294 292 291 291 291 293 293 295 295 295 297 297 297 297 297 297 297 298 299
297 297 296 295 294 293 291 291 290 291 289 289 289 289 289 289 291 293 294 294 295 295 295 295 295 295 295
296 295 295 294 291 289 289 288 288 288 288 287 287 287 287 287 287 287 288 289 292 292 293 293 293 293 293
294 293 290 289 288 288 288 287 287 287 287 285 286 286 286 286 286 285 284 284 284 285 287 288 289 289 290
288 288 288 287 287 286 287 287 286 286 285 284 286 286 287 287 287 287 286 286 286 287 289 289 289 290 290
287 287 287 287 287 286 286 286 286 286 285 284 285 286 286 286 287 286 286 286 286 287 287 289 290 290 290
284 284 283 283 283 284 284 286 285 285 284 284 285 285 286 287 286 286 286 286 287 286 286 287 289 290 290
284 283 282 281 281 281 283 284 285 285 284 284 284 284 284 287 286 286 286 286 286 286 286 287 287 287 287
282 282 282 282 283 283 282 282 283 285 284 284 283 283 284 284 284 285 285 285 285 285 285 285 286 287 287
282 282 282 282 283 283 283 282 282 282 283 283 282 282 282 282 282 284 284 284 284 284 285 285 285 284 286
281 282 283 283 283 284 283 282 282 282 282 282 282 281 280 281 281 281 281 281 282 284 284 283 283 284 284
282 283 283 283 282 282 283 282 282 282 282 283 282 282 281 279 280 279 280 280 281 281 282 283 283 283 283
281 282 282 282 282 282 282 282 282 282 281 281 282 282 282 281 280 280 280 280 281 282 282 283 283 283 283
281 282 282 282 282 281 282 281 281 280 280 281 281 281 281 281 280 280 281 281 283 283 282 283 283 283 283
280 281 281 281 281 281 281 280 279 280 280 280 280 280 280 281 281 281 281 282 282 282 282 282 281 281 282

GFSFLT2_925_thetae_063.txt.gz
Theta_e
302 300 298 298 297 298 297 296 296 296 298 299 299 300 300 301 302 303 304 304 305 305 305 304 304 305 305
300 298 297 298 296 295 295 295 294 293 294 296 296 297 298 297 298 299 299 299 300 301 301 301 303 303 303
298 297 296 296 294 293 295 292 292 291 291 291 291 292 293 294 295 296 296 297 297 297 297 297 298 298 299
297 297 296 295 294 292 291 290 290 290 288 288 288 288 288 288 289 292 294 294 295 295 295 295 295 295 295
297 296 295 294 291 289 288 287 287 288 287 286 286 286 286 287 287 287 287 287 290 293 293 293 293 294 294
295 294 291 290 289 288 287 287 287 287 285 285 286 286 286 286 286 286 286 285 285 284 285 287 289 290 290
291 289 288 288 287 286 286 286 286 285 286 284 286 286 286 286 286 287 286 286 286 286 287 289 290 290 290
287 287 287 287 287 286 286 286 285 285 284 284 285 286 286 286 286 286 286 286 287 287 287 288 289 290 290
284 284 284 283 283 284 284 285 285 284 284 284 284 285 286 287 286 286 286 286 287 287 287 287 287 289 290
284 283 282 282 282 281 283 284 284 284 284 285 284 284 285 286 286 286 286 286 286 286 286 286 287 287 287
283 282 282 282 282 282 282 282 282 284 284 284 283 283 283 284 284 284 285 285 284 285 285 285 285 286 286
282 282 282 282 282 282 283 283 283 283 283 283 282 282 281 281 281 284 284 283 283 282 282 284 284 284 285
281 281 282 283 283 283 283 283 282 282 282 282 282 282 281 280 280 280 281 281 282 284 283 283 283 283 283
281 282 283 283 283 282 282 283 282 282 282 282 282 282 282 282 281 279 280 280 281 281 282 283 283 283 283
281 281 282 282 282 282 282 282 282 282 282 280 281 281 282 282 281 280 281 280 281 282 282 282 283 283 283
281 281 281 282 282 282 281 282 282 281 281 280 280 280 280 280 280 281 281 281 281 281 281 281 281 282 282
281 281 281 281 281 281 281 281 281 280 279 279 279 280 277 278 280 281 281 281 281 281 280 281 281 280 280

GFSFLT2_925_thetae_066.txt.gz
Theta_e
302 300 299 299 299 297 297 297 297 296 297 297 299 299 299 300 302 305 306 306 307 307 308 308 307 306 306
299 298 298 298 297 295 295 295 294 293 294 293 294 296 297 297 298 299 300 301 301 302 303 304 304 304 304
299 298 297 296 295 294 294 293 292 292 291 290 290 291 292 294 295 296 296 296 297 298 298 299 300 300 301
298 296 296 295 294 292 291 290 290 290 289 288 288 288 288 288 289 290 293 294 295 295 295 295 295 295 296
297 296 295 294 293 290 289 287 287 287 287 286 285 286 286 287 286 286 286 286 289 292 293 293 294 294 294
296 295 293 292 290 288 287 287 286 287 285 285 286 285 286 286 286 286 286 286 285 285 285 286 289 290 291
294 293 291 289 288 287 286 286 286 285 285 284 286 286 286 286 286 287 286 286 286 287 288 288 289 290 290
289 288 288 288 287 286 286 285 285 285 284 284 285 285 285 286 287 286 286 287 287 287 287 287 287 289 290
286 286 286 285 284 285 285 285 284 284 284 285 284 285 286 286 286 286 286 287 287 287 287 288 288 288 288
284 283 282 282 282 282 282 284 284 284 284 285 284 284 285 286 286 286 286 285 286 286 286 286 286 286 286
284 283 282 282 282 282 282 282 282 283 284 284 284 283 283 283 284 284 285 285 284 284 284 284 284 285 285
283 282 281 282 282 283 283 283 283 283 283 283 283 282 282 281 281 283 284 283 283 282 282 283 283 283 284
282 282 282 282 282 283 283 283 283 282 282 282 282 282 282 281 281 281 280 282 282 283 282 283 284 284 284
282 281 282 282 283 283 282 282 282 282 282 282 281 282 282 282 282 281 281 281 282 282 282 283 283 283 283
281 281 282 283 283 282 282 282 282 282 282 282 280 280 281 281 281 281 281 281 281 281 281 281 282 283 282
281 281 281 281 282 282 282 281 281 282 281 281 279 280 280 280 281 281 280 281 281 281 281 280 280 281 281
281 281 281 281 281 281 281 281 281 281 280 279 279 279 275 277 280 280 281 281 281 280 280 280 280 280 280

GFSFLT2_925_thetae_069.txt.gz
Theta_e
301 300 300 299 300 299 298 297 297 296 297 296 297 298 299 300 301 304 305 306 307 307 308 309 310 310 309
299 298 298 298 298 297 295 295 294 294 293 293 293 295 297 297 298 299 300 301 303 303 305 306 305 306 306
298 298 297 296 296 295 294 294 293 292 291 290 291 291 292 294 294 295 297 297 298 299 299 300 301 301 302
299 297 296 295 294 293 293 291 291 290 289 288 288 288 288 289 288 289 291 294 295 295 296 296 297 297 297
297 296 295 294 294 292 290 289 288 287 287 286 286 286 286 286 286 286 286 286 287 291 293 294 294 294 294
296 295 295 294 293 290 288 287 285 286 286 285 285 285 285 286 286 286 287 286 286 285 285 286 288 290 291
295 295 294 293 291 288 287 286 285 285 285 284 285 286 286 286 286 287 286 286 286 287 287 288 288 288 289
292 292 291 289 288 287 286 285 285 285 284 284 284 285 285 286 287 286 286 287 288 287 287 287 287 288 290
286 287 287 287 286 286 285 285 284 284 284 284 284 285 286 286 286 286 286 287 287 287 287 288 288 288 287
284 284 283 283 284 283 282 284 284 284 284 285 284 284 285 286 285 286 286 286 286 286 286 286 286 286 286
284 284 283 282 282 282 282 282 283 283 285 284 284 284 283 283 284 285 285 285 285 284 284 284 284 285 285
284 283 282 282 282 283 283 283 283 283 283 284 283 283 282 282 282 283 284 284 284 283 282 282 283 283 284
283 283 282 282 282 282 282 283 283 283 283 282 282 282 282 282 282 282 282 282 282 282 283 282 283 284 284
283 282 282 282 282 283 283 282 282 282 282 282 282 281 281 281 281 282 282 281 282 282 282 282 282 282 283
283 282 281 282 283 283 283 282 282 282 282 282 281 280 280 280 280 281 281 281 281 281 281 281 282 282 282
282 282 281 281 282 282 282 282 281 281 281 281 281 279 279 280 280 280 280 280 281 281 281 280 280 281 281
281 281 281 281 281 281 281 281 281 281 281 280 280 278 275 277 280 280 281 281 281 280 280 280 279 280 280

GFSFLT2_925_thetae_072.txt.gz
Theta_e
302 302 300 301 300 300 299 299 298 296 297 296 298 298 299 300 301 304 304 306 308 309 310 311 311 312 312
301 299 299 299 299 298 297 297 295 294 294 293 294 295 297 297 298 299 302 303 302 304 305 307 307 308 308
298 298 297 297 296 295 295 294 293 293 291 291 291 292 293 294 294 296 297 299 300 299 300 302 303 304 304
299 297 297 295 295 294 294 292 292 291 290 289 288 288 289 290 289 289 292 294 296 297 297 298 298 299 299
298 296 295 294 294 294 293 291 289 288 288 287 286 286 286 287 286 286 286 286 288 293 294 294 295 295 295
297 296 295 295 293 292 290 288 286 286 286 285 285 285 285 285 287 287 287 287 286 285 286 287 289 290 291
296 295 295 295 294 291 289 287 286 285 285 284 285 285 286 286 286 287 287 288 287 287 288 288 288 288 289
294 294 294 293 291 290 288 286 285 285 284 284 284 285 285 286 288 287 287 288 288 288 288 288 288 288 289
287 288 288 288 287 287 286 285 284 284 284 284 284 284 285 286 287 287 286 287 288 288 288 288 288 288 287
286 286 286 286 285 284 284 284 284 283 284 285 284 284 285 285 286 286 286 286 286 286 286 286 286 286 286
284 284 283 282 283 282 282 282 283 284 284 285 284 284 284 284 285 285 285 285 285 285 284 284 284 284 285
284 283 282 282 282 282 282 282 282 282 283 284 283 283 283 283 283 283 284 284 284 284 283 282 282 283 283
284 283 282 282 282 282 283 283 283 283 283 283 283 282 282 282 282 282 282 282 282 283 282 282 282 283 284
283 282 282 281 282 282 282 283 283 282 282 282 282 282 282 282 281 281 281 282 282 283 282 282 282 282 283
285 283 282 281 282 282 283 283 282 282 282 282 282 281 281 280 280 280 281 281 281 281 281 281 282 282 282
285 284 282 281 282 282 283 283 282 282 282 282 281 281 280 280 280 280 280 280 281 281 281 281 281 282 282
283 282 282 281 281 281 282 281 281 281 281 281 281 280 276 277 280 280 280 281 281 281 281 280 280 280 280

GFSFLT2_925_thetae_078.txt.gz
Theta_e
309 307 306 304 302 302 302 301 300 299 298 298 298 299 299 301 302 303 304 304 309 311 313 316 315 318 315
304 303 302 300 300 299 299 298 298 297 296 295 295 297 297 298 299 300 303 303 303 307 310 312 315 318 319
302 300 299 298 297 297 296 296 295 295 294 294 293 293 295 295 296 297 298 300 302 302 305 308 310 311 312
301 299 298 297 296 296 294 294 293 293 293 292 291 290 292 291 290 290 294 296 298 299 300 302 305 307 307
299 298 296 295 294 295 294 293 292 291 291 289 289 288 288 288 288 287 287 289 294 295 297 298 299 301 302
298 298 297 296 295 294 293 291 293 290 290 289 287 287 286 288 288 287 287 287 287 290 293 294 295 296 297
297 297 297 297 296 294 292 293 295 288 289 289 286 287 286 286 287 287 288 289 290 289 288 287 288 289 289
295 296 296 296 295 294 294 292 288 286 286 288 286 287 286 287 287 289 289 289 289 290 290 290 290 290 290
292 293 294 294 294 293 290 289 288 287 285 286 285 286 286 288 289 288 288 289 289 290 289 289 288 288 288
289 289 290 291 291 289 290 290 288 287 285 286 285 286 287 286 287 287 288 289 289 289 288 287 287 287 288
287 287 287 288 287 286 286 286 287 288 285 286 285 285 287 286 286 286 286 286 286 286 286 285 285 285 287
286 285 285 285 285 283 282 283 283 283 284 284 285 287 287 286 286 284 285 285 285 285 285 285 285 284 284
286 286 285 285 283 282 282 282 282 283 284 285 284 284 284 287 287 284 284 284 284 284 284 284 284 284 284
286 286 284 282 283 283 284 283 284 284 283 283 283 283 283 283 284 286 284 286 284 283 283 283 283 283 283
285 285 284 283 283 283 284 284 285 285 284 283 283 283 283 283 284 284 284 284 283 283 282 283 283 283 284
286 285 284 284 284 283 283 284 285 285 284 283 282 282 282 282 282 283 283 283 283 282 281 283 284 284 283
286 286 285 284 284 284 283 284 284 285 284 284 283 283 284 285 283 280 283 283 283 283 283 283 284 284 284

GFSFLT2_925_thetae_081.txt.gz
Theta_e
310 309 307 305 304 304 303 302 302 302 300 299 298 299 299 300 301 302 303 304 306 309 312 314 316 315 312
307 307 304 301 302 301 301 300 299 299 298 296 296 297 298 298 298 300 301 302 303 305 310 313 316 318 318
304 303 301 300 299 298 298 298 297 296 295 295 294 294 295 295 295 297 299 299 301 302 304 309 311 313 317
303 300 300 298 297 297 296 296 295 295 296 294 293 292 292 292 290 290 293 296 298 299 300 303 307 310 310
301 299 297 296 296 297 296 295 294 294 293 291 290 290 290 289 288 288 287 289 294 296 298 299 301 303 305
300 299 299 298 297 296 294 292 291 293 292 292 290 289 288 287 288 287 287 287 288 292 294 296 297 298 299
299 299 299 299 297 295 294 294 295 292 291 291 289 288 287 286 286 287 288 289 289 288 288 289 291 292 293
297 297 297 297 297 297 296 294 291 291 289 289 287 287 287 286 287 289 289 289 290 290 290 291 289 289 289
294 294 295 295 295 294 293 292 290 288 287 287 286 287 286 288 289 289 288 289 290 290 290 289 288 289 289
288 290 292 293 292 292 293 291 290 288 286 286 286 286 286 288 288 288 288 289 290 289 289 288 287 288 288
289 289 290 289 289 290 290 290 289 289 286 286 285 285 289 286 287 287 287 288 288 288 287 287 286 286 288
287 287 288 288 287 285 285 286 286 286 285 285 286 286 287 287 286 286 286 286 286 286 286 286 286 285 285
287 286 285 286 285 283 282 282 283 283 284 284 285 286 286 288 287 285 285 285 285 285 285 285 285 285 285
287 286 286 285 284 283 282 283 283 283 283 284 285 284 284 284 285 286 285 286 284 284 284 284 284 284 284
287 286 285 284 284 284 284 284 286 285 284 283 283 283 283 284 284 284 286 285 285 284 284 283 283 283 283
286 286 284 284 284 284 284 285 285 286 285 284 283 282 283 283 283 284 284 284 284 283 283 282 282 284 284
286 286 284 284 285 284 284 284 285 286 285 284 284 284 284 283 284 282 283 284 283 283 283 283 284 285 285

GFSFLT2_925_thetae_084.txt.gz
Theta_e
312 311 308 308 307 306 306 304 303 303 302 302 302 301 300 299 300 301 302 303 303 306 309 312 314 315 315
309 308 306 304 305 303 302 302 302 301 300 299 298 298 298 297 297 299 300 301 302 304 307 310 313 316 315
307 305 304 302 301 300 299 299 299 299 297 296 296 295 296 296 295 296 298 299 299 301 303 307 310 314 318
305 303 301 300 299 298 297 297 296 296 297 296 295 294 293 293 291 289 292 295 298 299 300 304 307 309 311
303 301 299 297 297 298 297 297 296 296 295 295 294 292 291 291 290 289 288 288 294 296 298 299 301 305 308
301 300 300 299 299 298 296 293 292 295 294 293 291 290 289 289 289 288 287 287 287 293 295 297 298 300 302
301 301 300 300 299 297 295 295 295 294 293 292 290 289 288 288 287 287 287 289 289 288 290 292 293 296 297
300 300 299 299 298 298 297 295 293 291 291 290 288 287 287 286 286 289 289 289 290 290 291 289 289 290 290
297 297 296 296 297 296 294 292 290 290 289 288 287 287 287 287 289 290 289 289 290 291 290 289 289 289 289
294 293 293 294 294 294 295 292 293 288 288 287 286 286 286 288 289 289 288 289 291 290 289 288 288 288 288
290 289 290 292 293 293 293 293 292 289 287 286 286 286 289 286 288 288 288 289 289 289 288 287 287 287 288
289 289 289 289 289 290 291 291 291 291 287 285 286 286 288 286 286 287 287 287 287 288 287 286 286 286 286
288 287 287 288 288 286 286 286 286 286 285 285 285 286 286 287 286 285 286 286 286 286 286 286 286 285 286
287 287 286 287 286 285 283 282 283 283 284 284 285 285 286 287 287 285 285 286 285 285 285 285 285 285 285
287 286 286 285 285 283 282 282 283 283 283 284 284 284 284 284 284 285 286 285 285 285 284 284 284 284 284
287 286 286 285 284 284 283 283 285 285 284 283 283 282 283 284 284 284 284 286 285 284 284 283 283 283 283
286 286 286 285 284 284 284 285 284 286 286 285 283 283 277 279 285 283 284 284 283 283 283 283 283 284 285

GFSFLT2_925_thetae_087.txt.gz
Theta_e
311 310 310 309 308 307 307 307 305 304 303 303 303 301 301 300 300 299 301 302 302 303 305 308 309 312 315
310 308 307 307 306 305 304 305 303 303 302 301 300 299 299 298 298 298 299 300 301 302 303 306 309 311 314
309 307 306 305 303 303 302 302 301 301 300 298 297 297 297 296 295 296 297 298 299 300 301 303 308 310 317
307 305 304 302 301 302 301 300 299 298 298 297 296 296 294 294 292 292 290 292 296 298 300 302 305 308 315
304 302 300 299 300 300 299 298 298 297 297 296 296 295 293 293 292 291 289 288 290 295 297 299 302 304 306
303 302 301 301 301 299 297 295 293 297 294 295 294 292 292 291 290 289 288 287 287 292 294 297 299 300 304
303 301 301 302 301 298 297 296 296 295 294 293 293 291 290 289 288 287 287 288 289 289 292 293 295 297 299
302 302 302 301 300 300 299 296 295 294 293 291 290 289 289 288 287 287 289 289 290 291 291 291 292 292 294
300 300 300 299 299 297 295 293 290 290 291 290 288 288 287 287 286 290 289 289 291 291 290 291 291 290 289
297 296 296 296 296 297 297 293 291 290 290 290 287 287 286 287 288 290 289 290 291 290 289 288 289 289 289
294 293 293 293 294 294 295 295 293 294 290 288 286 286 286 287 289 289 288 290 290 290 288 288 287 288 288
291 290 290 291 293 293 293 293 293 293 292 288 286 286 288 286 287 288 288 289 289 289 288 287 287 286 287
290 290 289 289 290 290 290 291 291 290 290 288 286 286 286 287 286 286 286 287 287 287 287 286 286 286 286
291 291 288 288 288 288 287 287 287 286 286 285 285 285 286 287 287 286 286 286 286 286 286 286 286 286 285
291 288 287 287 287 287 286 284 283 283 284 284 285 284 286 286 287 287 285 285 285 285 285 285 285 285 285
290 287 286 285 286 285 284 282 282 283 283 283 283 283 283 284 284 284 285 285 285 285 285 284 284 284 284
289 286 286 285 285 284 283 282 283 284 284 283 283 283 276 279 284 284 284 284 285 285 284 284 283 283 284

GFSFLT2_925_thetae_090.txt.gz
Theta_e
311 310 310 310 310 310 309 309 308 307 307 306 305 304 303 302 301 302 301 300 301 302 303 305 306 308 310
309 308 307 307 308 307 307 306 306 305 305 303 302 301 300 300 300 299 298 298 299 300 300 301 304 308 310
306 306 306 305 304 304 304 303 304 304 302 301 300 299 298 298 297 296 295 294 297 298 299 300 302 308 312
308 305 305 303 303 303 302 302 302 302 300 299 298 297 297 296 295 293 292 289 291 295 297 299 301 306 312
304 302 301 299 300 302 301 301 300 299 298 298 297 297 296 295 294 293 291 290 288 290 295 298 299 303 306
303 302 301 303 302 301 300 297 295 299 297 296 296 296 296 294 292 290 290 289 287 287 292 295 297 299 305
304 304 304 304 303 299 299 298 298 297 296 294 295 295 293 291 290 289 288 287 288 288 291 293 294 297 300
306 306 304 303 302 302 301 299 296 296 295 293 293 292 291 290 289 287 287 288 289 291 291 292 293 294 295
303 302 302 301 301 300 298 295 291 292 293 291 290 289 288 288 287 287 290 289 290 292 291 291 291 293 294
300 300 300 300 300 299 300 295 292 289 292 291 288 288 286 286 287 289 290 290 290 290 290 289 289 290 290
298 297 297 297 297 297 297 298 294 293 293 291 287 287 285 287 288 289 289 289 290 290 289 288 288 288 288
294 293 294 294 294 295 295 295 296 295 294 292 289 287 286 286 287 288 288 288 289 289 289 287 287 287 288
292 292 293 293 293 293 292 292 293 293 293 292 289 287 286 287 286 287 287 288 289 289 288 288 286 286 286
292 293 292 289 290 291 290 290 290 290 290 290 288 286 285 287 287 286 287 287 287 288 287 287 286 286 286
291 290 289 289 288 288 288 288 288 286 285 286 286 285 285 285 286 286 286 286 286 287 286 286 286 286 286
290 290 287 287 286 286 285 286 285 284 284 284 284 284 285 286 286 286 286 285 285 285 285 285 285 285 285
289 289 288 286 286 285 285 284 283 283 282 283 283 283 276 280 284 285 285 285 285 285 285 285 284 283 283